CAPE
1341 1325 1759 1785 1731 1743 1827 1888 1912 2077 2341 2498 2368 2200 2176 2093 2030 2028 2081 2153 2127 2030 1754 1566 1150 1077 1054 1007 1334 1522 1203 802 716 762 969 761 706 577 487 602 612 483 780
1396 1217 1391 1909 2023 2046 2065 2098 2053 2010 2080 2201 2329 2428 2398 2300 2181 2131 2109 2087 2142 2135 1874 1672 1120 877 906 823 947 1264 1239 1038 1054 943 1045 993 1050 846 509 361 678 483 767
1486 1429 1254 1482 1808 2020 2050 2072 2061 1976 1877 1947 2038 2117 2138 2205 2201 2149 2107 2176 2207 2229 2076 1853 1682 1420 1439 1276 981 1293 1431 1372 1254 1043 1110 917 1062 591 421 409 531 753 565
1233 1146 1025 1094 1339 1425 1539 1604 1702 1795 1858 1894 1990 1969 1878 1901 2011 2098 2109 2137 2120 2017 2000 2002 1901 1938 1971 1632 1178 1158 1384 1413 1207 1028 624 938 765 855 504 469 439 506 411
773 591 482 523 627 738 734 889 969 1122 1300 1519 1731 1880 2045 2136 1988 2004 2171 2175 2178 2060 2005 1953 2001 1894 2085 1825 1268 1170 1252 1303 1223 833 715 897 708 824 645 541 530 637 629
459 612 639 648 672 642 540 367 396 433 489 615 770 1068 1566 1639 1958 2098 2235 2240 2202 2084 2106 2105 2309 2212 1917 1719 1243 1096 1050 1090 1029 723 1035 691 983 1008 777 784 859 678 637
239 346 332 357 403 444 461 426 417 387 417 358 315 348 509 726 1116 1517 1736 1965 2221 2146 2096 2338 2183 1926 1785 1607 1220 1019 880 873 867 841 1100 849 971 1347 746 717 883 710 566
53 2 29 141 254 322 391 449 453 459 450 405 394 441 386 266 225 699 1255 1638 1819 2072 1966 1971 1895 1786 1578 1442 1384 1010 781 691 810 942 1150 1043 1052 1292 686 750 813 667 569
0 0 0 0 0 0 0 0 0 0 0 31 109 259 293 280 233 348 805 1233 1581 1634 1769 1795 1685 1544 1437 1305 1064 1037 841 675 689 928 1070 1086 1268 1069 822 700 615 662 601
0 0 0 0 0 0 0 0 0 0 0 0 0 0 0 0 0 199 655 496 873 833 994 1354 1401 1388 1315 1158 1035 841 819 766 635 866 929 1085 1260 1459 920 633 586 660 562
0 0 0 0 0 0 0 0 0 0 0 0 0 0 0 0 0 0 0 0 25 235 620 925 975 1104 1190 1159 1055 934 799 775 934 1068 1101 1041 1404 1355 1255 972 890 663 621
0 0 0 0 0 0 0 0 0 0 0 0 0 0 0 0 0 0 0 0 0 32 326 720 1041 1315 883 1248 1287 1191 973 876 895 888 1067 1129 1494 1845 1582 1129 853 755 549
0 0 0 0 0 0 0 0 0 0 0 0 0 0 0 0 0 0 0 0 0 0 0 0 18 1299 1434 1377 1337 1371 1150 1178 1427 1044 771 904 1483 1969 1676 1512 1144 833 665
0 0 0 0 0 0 0 0 0 0 0 0 0 0 0 0 0 0 0 0 0 0 0 0 0 0 181 1163 1141 1298 1702 1504 1372 1175 922 959 1423 1837 2011 1695 1483 1120 737
0 0 0 0 0 0 0 0 0 0 0 0 0 0 0 0 0 0 0 0 0 0 0 0 0 0 0 0 151 840 978 1523 1554 1330 1245 904 1051 1452 1638 1896 1485 1292 1024
0 0 0 0 0 0 0 0 0 0 0 0 0 0 0 0 0 0 0 0 0 0 0 0 0 0 0 0 0 0 204 842 1414 1488 1419 1173 1131 987 1326 1922 1975 1789 1275
0 0 0 0 0 0 0 0 0 0 0 0 0 0 0 0 0 0 0 0 0 0 0 0 0 0 0 0 0 0 0 114 618 1406 1522 1195 1140 1113 924 1223 1480 1501 1615
0 0 0 0 0 0 0 0 0 0 0 0 0 0 0 0 0 0 0 0 0 0 0 0 0 0 0 0 0 0 0 0 26 325 1155 1320 1240 1249 1093 1128 1095 1317 1221
0 0 0 0 0 0 0 0 0 0 0 0 0 0 0 0 0 0 0 0 0 0 0 0 0 0 0 0 0 0 0 0 0 0 225 953 1278 1237 1156 1072 1101 894 816
0 0 0 0 0 0 0 0 0 0 0 0 0 0 0 0 0 0 0 0 0 0 0 0 0 0 0 0 0 0 0 0 0 0 0 147 543 1397 1432 1240 1091 923 864
0 0 0 0 0 0 0 0 0 0 0 0 0 0 0 0 0 0 0 0 0 0 0 0 0 0 0 0 0 0 0 0 0 0 0 0 233 903 1346 1596 1263 924 847
0 0 0 0 0 0 0 0 0 0 0 0 0 0 0 0 0 0 0 0 0 0 0 0 0 0 0 0 0 0 0 0 0 0 0 60 136 501 890 1124 1372 1105 885
0 0 0 0 0 0 0 0 0 0 0 0 0 0 0 0 0 0 0 0 0 0 0 0 0 0 0 0 0 0 0 0 0 0 0 0 180 552 646 706 891 1117 1026
0 0 0 0 0 0 0 0 0 0 0 0 0 0 0 0 0 0 0 0 0 0 0 0 0 0 0 0 0 0 0 0 0 0 0 0 0 15 323 434 649 859 929
0 0 0 0 0 0 0 0 0 0 0 0 0 0 0 0 0 0 0 0 0 0 0 0 0 0 0 0 0 0 0 0 0 0 0 0 0 0 0 0 98 750 545
0 0 0 0 0 0 0 0 0 0 0 0 0 0 0 0 0 0 0 0 0 0 0 0 0 0 0 0 0 0 0 0 0 0 0 0 0 0 0 0 2 9 516
CIN
-96 -117 -68 -60 -60 -53 -41 -34 -39 -27 -9 -3 -3 -4 -3 -6 -3 -2 0 0 0 0 0 0 -4 -7 -10 -19 -8 -2 -18 -49 -66 -50 -21 -25 -25 -38 -42 -16 -6 -5 -2
-82 -118 -89 -18 -11 -12 -12 -5 -5 -11 -8 -5 -1 0 0 0 -4 -1 0 0 0 0 -1 0 -5 -9 -11 -23 -21 -17 -18 -30 -32 -40 -22 -11 -2 -7 -42 -59 -4 -6 0
-51 -76 -107 -60 -15 0 0 0 0 0 -3 -3 -2 -2 -5 -2 -2 -2 -2 0 0 0 0 0 0 0 0 -3 -19 -12 -10 -16 -18 -26 -24 -38 -11 -37 -53 -41 -10 -1 -2
-102 -112 -125 -96 -54 -38 -21 -14 -11 -3 0 -1 -1 -1 -7 -5 0 -2 -1 -1 -1 0 0 0 0 0 0 -1 -9 -13 -6 -7 -17 -38 -75 -16 -6 -21 -33 -45 -15 -2 -2
-187 -185 -195 -224 -193 -154 -142 -100 -70 -50 -30 -16 -8 -4 0 0 0 0 0 0 0 -1 0 0 0 0 -1 -2 -10 -12 -9 -9 -9 -54 -37 -10 -47 -24 -34 -26 -11 -2 0
-243 -177 -142 -121 -108 -88 -92 -214 -195 -162 -130 -106 -72 -52 -15 -12 -1 0 0 0 0 0 0 0 0 -1 -3 -5 -20 -26 -24 -18 -19 -42 -5 -9 -24 -30 -44 -15 -3 -4 -1
-269 -218 -201 -176 -149 -123 -109 -116 -108 -115 -68 -76 -125 -126 -108 -74 -57 -28 -14 -3 0 0 0 0 0 -2 -7 -12 -24 -42 -56 -44 -27 -19 -23 -2 -48 -17 -37 -23 -4 -2 0
-341 -129 -322 -224 -181 -157 -121 -110 -111 -102 -95 -91 -85 -50 -59 -101 -221 -114 -42 -20 -9 -2 -4 -2 -2 -4 -11 -19 -18 -47 -77 -77 -35 -13 -14 -24 -58 -22 -38 -30 -5 -1 0
0 0 0 -54 0 0 0 0 0 0 0 -51 -245 -150 -135 -149 -155 -202 -72 -19 -4 -5 -4 -5 -10 -15 -23 -30 -46 -45 -64 -88 -79 -42 -35 -29 -43 -30 -31 -34 -19 -3 0
0 0 0 0 0 0 0 0 0 0 0 0 0 0 0 0 0 -220 -85 -98 -21 -31 -67 -30 -28 -25 -26 -37 -50 -74 -73 -72 -84 -48 -34 -10 -57 -22 -33 -42 -28 -4 -3
0 0 0 0 0 0 0 0 0 0 0 0 0 0 0 0 0 0 0 0 -423 -242 -130 -89 -87 -66 -47 -45 -61 -74 -96 -100 -56 -32 -26 -13 -65 -17 -25 -32 -14 -7 -3
0 0 0 0 0 0 0 0 0 0 0 0 0 0 0 0 0 0 0 0 0 -442 -212 -123 -10 -5 -70 -31 -21 -30 -48 -111 -65 -29 -18 -27 -70 -22 -21 -33 -28 -7 -6
0 0 0 0 0 0 0 0 0 0 0 0 0 0 0 0 0 0 0 0 0 0 0 0 -42 -12 -5 -25 -19 -20 -9 -80 -22 -11 -16 -14 -86 -53 -32 -26 -24 -14 -8
0 0 0 0 0 0 0 0 0 0 0 0 0 0 0 0 0 0 0 0 0 0 0 0 0 0 -219 -4 -3 -12 -15 -8 -26 -12 -5 -116 -97 -55 -35 -28 -22 -12 -17
0 0 0 0 0 0 0 0 0 0 0 0 0 0 0 0 0 0 0 0 0 0 0 0 0 0 0 0 -114 -31 -25 -45 -37 -36 -23 -12 -78 -76 -44 -29 -29 -10 -7
0 0 0 0 0 0 0 0 0 0 0 0 0 0 0 0 0 0 0 0 0 0 0 0 0 0 0 0 0 0 -319 -52 -26 -23 -24 -9 -12 -50 -74 -51 -23 -12 -6
0 0 0 0 0 0 0 0 0 0 0 0 0 0 0 0 0 0 0 0 0 0 0 0 0 0 0 0 0 0 0 -427 -121 -2 -3 -12 -15 -7 -48 -81 -67 -42 -5
0 0 0 0 0 0 0 0 0 0 0 0 0 0 0 0 0 0 0 0 0 0 0 0 0 0 0 0 0 0 0 0 -456 -253 -13 -6 -8 -18 -12 -2 -65 -66 -54
0 0 0 0 0 0 0 0 0 0 0 0 0 0 0 0 0 0 0 0 0 0 0 0 0 0 0 0 0 0 0 0 0 0 -335 -47 -6 -15 -22 -16 -3 -6 -53
0 0 0 0 0 0 0 0 0 0 0 0 0 0 0 0 0 0 0 0 0 0 0 0 0 0 0 0 0 0 0 0 0 0 0 -389 -171 -5 -4 -19 -20 -35 -17
0 0 0 0 0 0 0 0 0 0 0 0 0 0 0 0 0 0 0 0 0 0 0 0 0 0 0 0 0 0 0 0 0 0 0 0 -281 -14 -4 -4 -10 -31 -38
0 0 0 0 0 0 0 0 0 0 0 0 0 0 0 0 0 0 0 0 0 0 0 0 0 0 0 0 0 0 0 0 0 0 0 -369 -273 -106 -15 -14 -15 -15 -21
0 0 0 0 0 0 0 0 0 0 0 0 0 0 0 0 0 0 0 0 0 0 0 0 0 0 0 0 0 0 0 0 0 0 0 0 -192 -51 -4 -15 -4 -9 -15
0 0 0 0 0 0 0 0 0 0 0 0 0 0 0 0 0 0 0 0 0 0 0 0 0 0 0 0 0 0 0 0 0 0 0 0 0 -39 -49 0 -30 -24 -17
0 0 0 0 0 0 0 0 0 0 0 0 0 0 0 0 0 0 0 0 0 0 0 0 0 0 0 0 0 0 0 0 0 0 0 0 0 0 0 0 -132 -12 -28
0 0 0 0 0 0 0 0 0 0 0 0 0 0 0 0 0 0 0 0 0 0 0 0 0 0 0 0 0 0 0 0 0 0 0 0 0 0 0 0 -30 -193 -16
Wind_Speed
30 28 24 24 24 23 21 18 17 17 17 18 16 14 11 8 6 7 8 10 11 12 13 14 14 13 13 13 12 11 10 10 11 11 11 12 15 18 20 19 17 24 30
34 30 24 24 25 26 24 21 19 20 20 20 19 17 14 12 11 10 9 10 11 11 13 14 14 14 13 12 12 13 12 10 10 11 10 11 18 19 22 23 22 29 33
31 30 31 28 29 29 28 26 25 23 22 20 20 17 15 13 12 12 11 12 13 13 12 14 14 13 12 12 11 11 12 10 8 9 11 13 23 20 25 27 26 30 34
35 32 32 32 34 32 31 29 28 25 23 21 18 16 14 12 11 12 12 13 14 15 14 14 15 14 13 12 11 11 10 10 8 7 11 15 12 27 27 31 28 30 34
37 36 35 36 36 37 32 30 27 25 23 22 19 17 15 13 11 11 12 14 16 16 15 14 13 14 15 13 11 10 9 9 9 8 10 13 17 25 32 33 32 32 30
41 39 40 42 41 38 35 32 29 27 25 23 20 18 16 14 13 13 15 17 18 16 14 13 14 14 13 13 11 10 8 7 8 10 11 17 18 30 32 31 35 35 38
42 41 41 45 46 41 37 35 30 28 25 23 22 20 17 16 15 15 17 19 18 15 14 14 14 13 13 13 12 11 10 9 11 8 8 21 25 27 31 32 37 38 40
nan nan nan 48 47 43 38 36 33 29 27 26 25 23 20 18 16 16 16 17 15 15 14 11 11 11 12 14 16 15 13 12 11 12 10 19 29 32 31 35 35 37 41
nan nan nan nan nan nan nan nan nan nan nan nan 26 24 22 18 18 16 15 16 18 14 11 10 10 10 11 12 14 17 20 19 18 17 12 17 31 32 34 35 37 37 39
nan nan nan nan nan nan nan nan nan nan nan nan nan nan nan nan nan 15 14 20 12 11 11 10 9 12 13 14 14 17 21 21 23 21 20 25 35 34 37 37 38 37 36
nan nan nan nan nan nan nan nan nan nan nan nan nan nan nan nan nan nan nan nan nan 1 3 9 13 17 20 22 23 25 26 25 25 28 26 38 43 37 40 40 38 38 36
nan nan nan nan nan nan nan nan nan nan nan nan nan nan nan nan nan nan nan nan nan nan 4 11 14 17 16 17 19 27 27 29 27 25 28 42 44 43 42 43 42 38 37
nan nan nan nan nan nan nan nan nan nan nan nan nan nan nan nan nan nan nan nan nan nan nan nan nan 14 13 14 12 14 27 29 25 26 26 42 46 49 46 45 45 41 37
nan nan nan nan nan nan nan nan nan nan nan nan nan nan nan nan nan nan nan nan nan nan nan nan nan nan 15 14 14 14 18 27 27 24 31 40 41 48 50 46 48 45 41
nan nan nan nan nan nan nan nan nan nan nan nan nan nan nan nan nan nan nan nan nan nan nan nan nan nan nan nan 20 19 16 20 22 26 28 40 35 36 46 49 48 48 45
nan nan nan nan nan nan nan nan nan nan nan nan nan nan nan nan nan nan nan nan nan nan nan nan nan nan nan nan nan nan 21 21 23 25 29 34 37 37 41 48 50 50 47
nan nan nan nan nan nan nan nan nan nan nan nan nan nan nan nan nan nan nan nan nan nan nan nan nan nan nan nan nan nan nan 24 23 27 30 31 35 37 38 40 49 50 51
nan nan nan nan nan nan nan nan nan nan nan nan nan nan nan nan nan nan nan nan nan nan nan nan nan nan nan nan nan nan nan nan nan 26 30 31 32 36 38 41 45 50 49
nan nan nan nan nan nan nan nan nan nan nan nan nan nan nan nan nan nan nan nan nan nan nan nan nan nan nan nan nan nan nan nan nan nan 29 32 32 36 39 45 46 43 42
nan nan nan nan nan nan nan nan nan nan nan nan nan nan nan nan nan nan nan nan nan nan nan nan nan nan nan nan nan nan nan nan nan nan nan 34 32 36 38 44 54 52 43
nan nan nan nan nan nan nan nan nan nan nan nan nan nan nan nan nan nan nan nan nan nan nan nan nan nan nan nan nan nan nan nan nan nan nan nan 34 36 39 46 60 59 53
nan nan nan nan nan nan nan nan nan nan nan nan nan nan nan nan nan nan nan nan nan nan nan nan nan nan nan nan nan nan nan nan nan nan nan nan 42 35 38 46 52 52 48
nan nan nan nan nan nan nan nan nan nan nan nan nan nan nan nan nan nan nan nan nan nan nan nan nan nan nan nan nan nan nan nan nan nan nan nan 41 39 39 45 37 38 39
nan nan nan nan nan nan nan nan nan nan nan nan nan nan nan nan nan nan nan nan nan nan nan nan nan nan nan nan nan nan nan nan nan nan nan nan nan nan 38 42 39 37 36
nan nan nan nan nan nan nan nan nan nan nan nan nan nan nan nan nan nan nan nan nan nan nan nan nan nan nan nan nan nan nan nan nan nan nan nan nan nan nan nan nan 39 38
nan nan nan nan nan nan nan nan nan nan nan nan nan nan nan nan nan nan nan nan nan nan nan nan nan nan nan nan nan nan nan nan nan nan nan nan nan nan nan nan nan nan 38
Wind_Direction
285 287 283 288 291 291 291 287 283 286 288 293 294 301 302 305 315 320 326 337 342 348 350 351 351 353 1 358 12 15 346 325 312 305 302 301 298 299 294 287 280 286 290
286 287 278 289 290 291 292 285 274 280 287 295 297 295 297 303 309 319 325 328 334 347 350 348 350 348 345 349 351 351 351 342 336 322 322 325 317 309 302 291 285 295 295
280 281 281 280 286 289 288 283 277 275 279 286 292 293 293 297 299 312 318 323 330 334 339 342 343 346 343 345 341 352 357 347 333 326 332 330 314 314 304 304 295 300 303
278 278 280 280 285 286 289 284 279 276 271 270 277 281 283 285 294 300 314 317 319 324 326 325 337 338 331 333 341 340 352 354 333 321 327 329 307 310 309 303 306 309 304
279 283 281 280 281 285 285 282 275 275 274 269 265 267 270 276 288 300 306 312 319 313 311 316 312 315 314 323 324 332 342 343 337 332 329 305 297 312 308 307 307 308 309
284 286 279 280 282 281 283 280 276 268 263 264 263 262 265 271 276 285 296 303 305 301 299 303 301 298 308 318 319 320 334 332 324 335 336 310 311 313 308 312 304 306 304
283 284 283 282 284 285 284 283 280 279 273 269 267 263 263 267 275 285 296 304 304 300 299 302 302 304 306 311 317 321 321 327 328 325 314 306 302 307 310 308 313 312 309
nan nan nan 286 288 289 285 283 282 278 276 273 268 262 263 268 277 285 296 299 294 301 298 304 311 322 329 332 333 333 330 327 319 320 324 303 314 311 309 304 311 315 315
nan nan nan nan nan nan nan nan nan nan nan nan 272 264 264 276 288 299 302 284 277 268 284 307 318 322 328 333 336 340 341 339 326 318 319 311 314 314 311 307 311 314 315
nan nan nan nan nan nan nan nan nan nan nan nan nan nan nan nan nan 289 302 284 283 300 307 313 337 348 347 339 339 337 341 339 331 331 334 320 324 315 314 310 310 313 316
nan nan nan nan nan nan nan nan nan nan nan nan nan nan nan nan nan nan nan nan nan 265 18 40 38 29 24 19 17 15 356 339 338 329 329 327 332 327 317 311 309 309 313
nan nan nan nan nan nan nan nan nan nan nan nan nan nan nan nan nan nan nan nan nan nan 55 38 25 17 3 359 356 13 347 352 346 339 329 333 334 331 329 317 313 313 311
nan nan nan nan nan nan nan nan nan nan nan nan nan nan nan nan nan nan nan nan nan nan nan nan nan 319 316 325 323 322 337 337 334 335 334 336 342 331 326 324 319 316 314
nan nan nan nan nan nan nan nan nan nan nan nan nan nan nan nan nan nan nan nan nan nan nan nan nan nan 294 302 315 313 315 326 320 316 313 323 330 335 330 328 325 322 316
nan nan nan nan nan nan nan nan nan nan nan nan nan nan nan nan nan nan nan nan nan nan nan nan nan nan nan nan 295 294 296 297 307 308 306 321 328 334 336 331 327 324 320
nan nan nan nan nan nan nan nan nan nan nan nan nan nan nan nan nan nan nan nan nan nan nan nan nan nan nan nan nan nan 292 293 300 303 303 307 324 329 329 331 325 322 320
nan nan nan nan nan nan nan nan nan nan nan nan nan nan nan nan nan nan nan nan nan nan nan nan nan nan nan nan nan nan nan 290 293 296 299 304 304 322 322 326 327 321 316
nan nan nan nan nan nan nan nan nan nan nan nan nan nan nan nan nan nan nan nan nan nan nan nan nan nan nan nan nan nan nan nan nan 292 290 296 300 300 310 322 321 319 309
nan nan nan nan nan nan nan nan nan nan nan nan nan nan nan nan nan nan nan nan nan nan nan nan nan nan nan nan nan nan nan nan nan nan 290 294 303 302 299 313 315 304 297
nan nan nan nan nan nan nan nan nan nan nan nan nan nan nan nan nan nan nan nan nan nan nan nan nan nan nan nan nan nan nan nan nan nan nan 287 294 293 297 299 301 292 289
nan nan nan nan nan nan nan nan nan nan nan nan nan nan nan nan nan nan nan nan nan nan nan nan nan nan nan nan nan nan nan nan nan nan nan nan 285 292 294 299 293 280 274
nan nan nan nan nan nan nan nan nan nan nan nan nan nan nan nan nan nan nan nan nan nan nan nan nan nan nan nan nan nan nan nan nan nan nan nan 273 282 296 300 287 279 275
nan nan nan nan nan nan nan nan nan nan nan nan nan nan nan nan nan nan nan nan nan nan nan nan nan nan nan nan nan nan nan nan nan nan nan nan 263 277 287 292 276 266 281
nan nan nan nan nan nan nan nan nan nan nan nan nan nan nan nan nan nan nan nan nan nan nan nan nan nan nan nan nan nan nan nan nan nan nan nan nan nan 293 294 264 264 269
nan nan nan nan nan nan nan nan nan nan nan nan nan nan nan nan nan nan nan nan nan nan nan nan nan nan nan nan nan nan nan nan nan nan nan nan nan nan nan nan nan 264 256
nan nan nan nan nan nan nan nan nan nan nan nan nan nan nan nan nan nan nan nan nan nan nan nan nan nan nan nan nan nan nan nan nan nan nan nan nan nan nan nan nan nan 253